[[{"header":{"parameterUnit":"m.s-1","parameterCategory":2,"la1":30.2991,"la2":30.254,"lo1":-89.0895,"lo2":-89.0444,"dy":0.0017,"dx":0.0017,"nx":28,"ny":28,"refTime":"2023-10-29T03:00:00:Z","depth":"0","parameterNumber":2,"parameterNumberName":"U-component_of_CURRENTS"},"data":[0,0,0,0,0,0,0,0,0,0,0,0,0,0,0,0,0,0,0,0,0,0,0,0,0,0,0,0,0,0,0,0,0,0,0,0,0,0,0,0,0,0,0,0,0,0,0,0,0,0,0,0,0,0,0,0,0,0,-0.2391,-0.2392,0,-0.2471,-0.2472,-0.2473,-0.2426,-0.2423,-0.2421,-0.2418,-0.2336,-0.2336,-0.2337,0,0,0,0,0,0,0,0,0,0,0,0,0,-0.2339,-0.234,-0.2391,-0.2392,-0.2392,-0.247,-0.2472,-0.2474,-0.2427,-0.2423,-0.242,-0.2416,-0.2335,-0.2336,-0.2337,0,0,0,0,0,0,0,0,0,0,0,0,0,-0.2391,-0.234,-0.2391,-0.2373,-0.2372,-0.247,-0.2472,-0.2474,-0.2428,-0.2423,-0.2419,-0.2415,-0.2335,-0.2336,-0.2337,-0.2429,0,0,-0.2339,-0.2339,0,0,0,0,0,0,0,0,-0.2388,-0.2393,-0.2375,-0.2374,-0.2373,-0.2428,-0.2423,-0.2449,-0.2429,-0.2414,-0.2418,-0.2413,-0.235,-0.235,-0.2386,-0.2425,-0.2421,-0.2339,-0.234,-0.234,-0.234,0,0,0,0,0,0,0,-0.2384,-0.2391,-0.243,-0.2376,-0.2374,-0.2408,-0.241,-0.243,-0.2408,-0.2415,-0.241,-0.2409,-0.2349,-0.2386,-0.2383,-0.242,-0.2339,-0.234,-0.234,-0.2341,-0.2407,-0.2408,0,0,0,0,0,0,-0.2358,-0.2387,-0.2427,-0.2431,-0.2362,-0.2411,-0.2414,-0.242,-0.2411,-0.2405,-0.2413,-0.2406,-0.2387,-0.2383,-0.238,-0.2373,-0.234,-0.2341,-0.2341,-0.2406,-0.2407,-0.2409,0,0,0,0,0,0,-0.2357,-0.2362,-0.2424,-0.2405,-0.2414,-0.2415,-0.2424,-0.2424,-0.2441,-0.241,-0.2401,-0.2425,-0.2383,-0.2379,-0.2361,-0.2373,-0.2341,-0.2342,-0.2404,-0.2406,-0.2408,-0.2433,0,0,0,0,0,0,-0.2356,-0.2361,-0.2368,-0.2403,-0.2414,-0.2438,-0.2427,-0.2429,-0.2445,-0.2437,-0.2419,-0.2408,-0.2379,-0.236,-0.2362,-0.2373,-0.2342,-0.2403,-0.2405,-0.2407,-0.243,-0.2435,-0.2439,0,0,0,0,0,-0.2354,-0.2374,-0.2368,-0.2373,-0.2419,-0.2437,-0.2446,-0.2438,-0.245,-0.2444,-0.2434,-0.2407,-0.2377,-0.2362,-0.2364,-0.2376,-0.2401,-0.2404,-0.2407,-0.2428,-0.2434,-0.2439,0,0,0,0,0,0,-0.2349,-0.2372,-0.2365,-0.2389,-0.2389,-0.2425,-0.243,-0.245,-0.2455,-0.244,-0.2427,-0.2415,-0.2411,-0.24,-0.2384,-0.2404,-0.2386,-0.2389,-0.2401,-0.2407,-0.2412,-0.2431,-0.2343,0,0,0,0,0,-0.2355,-0.2371,-0.2384,-0.2396,-0.2396,-0.2424,-0.244,-0.2433,-0.244,-0.244,-0.243,-0.2426,-0.2439,-0.242,-0.2423,-0.2437,-0.2436,-0.2447,-0.2452,-0.2456,-0.2475,-0.2485,-0.2491,-0.2418,-0.2418,-0.2418,0,0,-0.2349,-0.2368,-0.2372,-0.2395,-0.2403,-0.2422,-0.2422,-0.2428,-0.2452,-0.2431,-0.2449,-0.2446,-0.2451,-0.2454,-0.2451,-0.2433,-0.2474,-0.2459,-0.2462,-0.248,-0.2488,-0.2495,-0.2501,-0.242,-0.242,-0.2419,0,0,-0.2351,-0.2365,-0.2375,-0.2384,-0.2389,-0.2413,-0.2414,-0.2438,-0.2443,-0.2465,-0.2465,-0.2469,-0.2477,-0.2483,-0.2493,-0.2536,-0.2509,-0.2529,-0.2554,-0.2563,-0.2569,-0.2574,-0.2569,-0.2574,-0.2518,-0.2518,-0.2518,0,-0.2353,-0.2372,-0.2377,-0.2392,-0.2413,-0.2411,-0.2435,-0.2456,-0.247,-0.2491,-0.2451,-0.2515,-0.2502,-0.2552,-0.2551,-0.2548,-0.2537,-0.2527,-0.2568,-0.2573,-0.2578,-0.2572,-0.2577,-0.2519,-0.2519,-0.2519,-0.2519,0,-0.2353,-0.2378,-0.2383,-0.2412,-0.243,-0.2445,-0.2465,-0.248,-0.2497,-0.252,-0.2555,-0.2548,-0.2579,-0.258,-0.2575,-0.2618,-0.2594,-0.258,-0.2549,-0.2587,-0.2578,-0.2583,-0.2522,-0.2521,-0.2521,-0.252,0,0,-0.2348,-0.2386,-0.2387,-0.241,-0.245,-0.2464,-0.2507,-0.2554,-0.259,-0.2588,-0.264,-0.2664,-0.2654,-0.2668,-0.2663,-0.2666,-0.2681,-0.263,-0.2629,-0.2619,-0.2685,-0.2685,-0.2689,-0.266,-0.2662,-0.2663,-0.266,0,-0.2355,-0.2397,-0.2423,-0.2468,-0.2492,-0.2526,-0.2568,-0.2603,-0.2629,-0.2663,-0.2678,-0.2707,-0.269,-0.2691,-0.2699,-0.269,-0.2697,-0.2683,-0.2658,-0.2658,-0.2648,-0.2697,-0.2546,-0.2533,-0.2664,-0.2665,-0.2665,0,-0.2342,-0.2386,-0.2434,-0.2509,-0.2522,-0.255,-0.2627,-0.2663,-0.2713,-0.2728,-0.2761,-0.2764,-0.2791,-0.2756,-0.2768,-0.2751,-0.273,-0.2716,-0.2714,-0.2715,-0.2668,-0.2521,-0.2536,-0.2492,-0.2672,-0.2672,-0.2671,0,-0.2321,-0.2393,-0.2442,-0.2464,-0.2542,-0.2574,-0.2615,-0.2673,-0.2708,-0.276,-0.2775,-0.2814,-0.2813,-0.2809,-0.2783,-0.2767,-0.2782,-0.2752,-0.2742,-0.274,-0.2612,-0.2598,-0.258,-0.2774,-0.2774,-0.2774,-0.2774,0,-0.2323,-0.2355,-0.2429,-0.2451,-0.2503,-0.2558,-0.261,-0.2655,-0.2714,-0.2738,-0.2791,-0.2814,-0.2822,-0.2828,-0.2804,-0.2791,-0.2798,-0.277,-0.2752,-0.2617,-0.2604,-0.2561,-0.2555,-0.2774,-0.2774,-0.2774,-0.2774,0,-0.2269,-0.2324,-0.2376,-0.2463,-0.2486,-0.2511,-0.2586,-0.2605,-0.2682,-0.2714,-0.2726,-0.2805,-0.2827,-0.2841,-0.2836,-0.2812,-0.2738,-0.2795,-0.2637,-0.2603,-0.2566,-0.2567,-0.2531,-0.2454,-0.2787,-0.2788,-0.2788,0,-0.2245,-0.2263,-0.2354,-0.2359,-0.2391,-0.244,-0.2452,-0.2557,-0.2577,-0.2697,-0.2691,-0.277,-0.2791,-0.2821,-0.2811,-0.2799,-0.2738,-0.2649,-0.2616,-0.257,-0.2557,-0.2528,-0.2462,-0.2436,-0.2434,-0.2431,-0.243,0,-0.2183,-0.2209,-0.2239,-0.2261,-0.2276,-0.2314,-0.2348,-0.2373,-0.2478,-0.2528,-0.2585,-0.2633,-0.2719,-0.2673,-0.2706,-0.2673,-0.2547,-0.2607,-0.2582,-0.2322,-0.2263,-0.2175,-0.2433,-0.241,-0.2412,-0.2413,-0.2414,-0.2415,-0.2105,-0.2102,-0.2121,-0.2135,-0.2148,-0.2146,-0.2127,-0.2185,-0.2224,-0.2278,-0.2408,-0.2473,-0.25,-0.2555,-0.2514,-0.2416,-0.2471,-0.2317,-0.2331,-0.2315,-0.222,-0.2459,-0.2414,-0.2416,-0.2418,-0.2419,-0.242,0,-0.2001,-0.1992,-0.1985,-0.1985,-0.1936,-0.2,-0.2012,-0.198,-0.1973,-0.211,-0.2162,-0.229,-0.2241,-0.2286,-0.2234,-0.2129,-0.2033,-0.2072,-0.1957,-0.1911,-0.212,-0.2084,-0.1938,-0.1938,-0.1938,-0.1938,-0.1938,-0.1938,-0.1928,-0.1883,-0.1888,-0.1774,-0.1755,-0.166,-0.164,-0.1636,-0.1707,-0.1814,-0.1967,-0.2142,-0.2252,-0.2226,-0.2053,-0.1939,-0.1827,-0.177,-0.1819,-0.1932,-0.1954,-0.1975,-0.194,-0.1766,-0.1766,-0.1486,-0.1484,-0.1483]},{"header":{"parameterUnit":"m.s-1","parameterCategory":2,"la1":30.2991,"la2":30.254,"lo1":-89.0895,"lo2":-89.0444,"dy":0.0017,"dx":0.0017,"nx":28,"ny":28,"refTime":"2023-10-29T03:00:00:Z","depth":"0","parameterNumber":3,"parameterNumberName":"V-component_of_CURRENTS"},"data":[0,0,0,0,0,0,0,0,0,0,0,0,0,0,0,0,0,0,0,0,0,0,0,0,0,0,0,0,0,0,0,0,0,0,0,0,0,0,0,0,0,0,0,0,0,0,0,0,0,0,0,0,0,0,0,0,0,0,-0.0493,-0.0493,0,-0.0505,-0.0506,-0.0506,-0.0532,-0.0532,-0.0532,-0.0532,-0.0371,-0.0367,-0.0362,0,0,0,0,0,0,0,0,0,0,0,0,0,-0.0566,-0.0564,-0.0493,-0.0493,-0.0492,-0.0505,-0.0506,-0.0507,-0.0532,-0.0532,-0.0532,-0.0532,-0.0372,-0.0367,-0.0362,0,0,0,0,0,0,0,0,0,0,0,0,0,-0.0558,-0.0564,-0.0494,-0.0501,-0.0501,-0.0505,-0.0506,-0.0507,-0.0532,-0.0532,-0.0532,-0.0531,-0.0374,-0.0367,-0.0361,-0.0328,0,0,-0.0342,-0.034,0,0,0,0,0,0,0,0,-0.0559,-0.0557,-0.0501,-0.05,-0.0501,-0.051,-0.0472,-0.0436,-0.0532,-0.0528,-0.0532,-0.0531,-0.0396,-0.0388,-0.0404,-0.032,-0.0313,-0.0342,-0.0338,-0.0335,-0.0334,0,0,0,0,0,0,0,-0.0559,-0.0557,-0.0506,-0.05,-0.05,-0.0528,-0.0527,-0.0467,-0.0466,-0.0529,-0.0529,-0.0518,-0.0396,-0.0411,-0.04,-0.0311,-0.0342,-0.0336,-0.0333,-0.033,-0.0204,-0.0205,0,0,0,0,0,0,-0.0539,-0.0556,-0.0505,-0.0505,-0.0521,-0.0526,-0.0525,-0.0514,-0.0471,-0.0463,-0.0518,-0.0519,-0.0421,-0.0407,-0.0394,-0.0343,-0.0335,-0.033,-0.0326,-0.0204,-0.0204,-0.0205,0,0,0,0,0,0,-0.054,-0.0534,-0.0505,-0.0526,-0.0523,-0.0524,-0.0511,-0.0514,-0.0525,-0.0463,-0.0454,-0.0526,-0.042,-0.0403,-0.0342,-0.0337,-0.0327,-0.0321,-0.0204,-0.0204,-0.0205,-0.0245,0,0,0,0,0,0,-0.0542,-0.0535,-0.0533,-0.0524,-0.052,-0.0502,-0.0511,-0.0514,-0.0515,-0.0517,-0.0465,-0.0452,-0.0419,-0.0352,-0.0336,-0.0328,-0.0316,-0.0203,-0.0204,-0.0204,-0.0243,-0.0246,-0.025,0,0,0,0,0,-0.0545,-0.0567,-0.0533,-0.0527,-0.0513,-0.0501,-0.0504,-0.0509,-0.0516,-0.052,-0.0487,-0.0453,-0.0346,-0.0347,-0.0328,-0.0318,-0.0203,-0.0204,-0.0204,-0.0241,-0.0246,-0.025,0,0,0,0,0,0,-0.0601,-0.057,-0.0533,-0.0542,-0.0507,-0.0503,-0.052,-0.0508,-0.0494,-0.0496,-0.0444,-0.0427,-0.0376,-0.0342,-0.0345,-0.0288,-0.0273,-0.0271,-0.0308,-0.0311,-0.0315,-0.0342,-0.0311,0,0,0,0,0,-0.0603,-0.06,-0.0559,-0.0552,-0.0545,-0.0525,-0.0525,-0.0517,-0.0495,-0.0492,-0.0448,-0.0408,-0.0368,-0.0336,-0.0294,-0.0248,-0.0226,-0.0236,-0.024,-0.0243,-0.0255,-0.0216,-0.0217,-0.0208,-0.0208,-0.0208,0,0,-0.0606,-0.0596,-0.0584,-0.0561,-0.0546,-0.0545,-0.0528,-0.0527,-0.0521,-0.0469,-0.0453,-0.0408,-0.0359,-0.0322,-0.0296,-0.0288,-0.0235,-0.0244,-0.0246,-0.0257,-0.0217,-0.0218,-0.0219,-0.0208,-0.0208,-0.0208,0,0,-0.0629,-0.0614,-0.0619,-0.0601,-0.0573,-0.0567,-0.0561,-0.054,-0.0533,-0.0495,-0.0467,-0.0423,-0.0354,-0.0328,-0.0304,-0.0298,-0.0255,-0.0281,-0.0313,-0.0275,-0.0275,-0.0276,-0.0253,-0.0251,-0.0282,-0.0282,-0.0282,0,-0.0641,-0.0639,-0.0615,-0.062,-0.062,-0.0577,-0.0587,-0.0571,-0.0525,-0.0511,-0.0492,-0.0414,-0.0365,-0.0329,-0.0337,-0.0304,-0.0281,-0.0298,-0.0279,-0.0279,-0.0278,-0.0255,-0.0252,-0.0284,-0.0284,-0.0284,-0.0284,0,-0.0657,-0.0659,-0.067,-0.0658,-0.0653,-0.0659,-0.0623,-0.0608,-0.0588,-0.0556,-0.0506,-0.0446,-0.0403,-0.0379,-0.0354,-0.0327,-0.0312,-0.0287,-0.0269,-0.0282,-0.0257,-0.0253,-0.0287,-0.0287,-0.0286,-0.0285,0,0,-0.0681,-0.0685,-0.0687,-0.0692,-0.0684,-0.0684,-0.0677,-0.0657,-0.065,-0.0588,-0.0571,-0.0506,-0.0466,-0.044,-0.0393,-0.036,-0.0334,-0.0328,-0.0325,-0.0308,-0.026,-0.0236,-0.0229,-0.03,-0.0299,-0.0299,-0.0246,0,-0.0703,-0.0742,-0.0733,-0.0755,-0.0777,-0.0748,-0.0748,-0.0715,-0.0677,-0.0642,-0.0572,-0.0532,-0.0489,-0.0466,-0.0426,-0.0351,-0.0325,-0.0352,-0.025,-0.0248,-0.0225,-0.0224,-0.0214,-0.0165,-0.0242,-0.0242,-0.0241,0,-0.0726,-0.0757,-0.0801,-0.082,-0.0826,-0.083,-0.0834,-0.0815,-0.0752,-0.072,-0.0663,-0.0599,-0.0537,-0.0502,-0.0392,-0.0408,-0.035,-0.0295,-0.0291,-0.0253,-0.0216,-0.0164,-0.0155,-0.0107,-0.0235,-0.0235,-0.0236,0,-0.0779,-0.0804,-0.0854,-0.0859,-0.0871,-0.0882,-0.088,-0.0839,-0.0828,-0.0761,-0.0742,-0.065,-0.0604,-0.0514,-0.0396,-0.0393,-0.0276,-0.0254,-0.0182,-0.018,-0.0147,-0.0142,-0.0081,-0.0196,-0.0196,-0.0196,-0.0196,0,-0.0831,-0.0861,-0.088,-0.0907,-0.0954,-0.093,-0.0953,-0.0931,-0.089,-0.0878,-0.0781,-0.0753,-0.0605,-0.0512,-0.0412,-0.0281,-0.0286,-0.0193,-0.0163,-0.0161,-0.0159,-0.0094,-0.0052,-0.0194,-0.0195,-0.0195,-0.0195,0,-0.0882,-0.0894,-0.0948,-0.0976,-0.0984,-0.1012,-0.1016,-0.1016,-0.0971,-0.0953,-0.0937,-0.0825,-0.0706,-0.0557,-0.0403,-0.0304,-0.0125,-0.0141,-0.0155,-0.0128,-0.0018,0.0022,0.0183,0.0214,-0.0055,-0.0054,-0.0054,0,-0.0922,-0.0955,-0.1008,-0.1036,-0.1052,-0.1081,-0.1098,-0.1069,-0.1062,-0.1001,-0.0994,-0.0878,-0.0805,-0.056,-0.0355,-0.017,-0.0098,-0.0054,-0.0048,-0.0015,0.0053,0.0119,0.0137,-0.0021,-0.002,-0.0019,-0.0019,0,-0.0994,-0.1006,-0.1051,-0.1112,-0.1144,-0.1177,-0.119,-0.1202,-0.1159,-0.1143,-0.1096,-0.1036,-0.0792,-0.058,-0.0318,-0.0187,0.001,-0.0032,0.0016,0.0092,0.0158,0.0202,-0.0066,-0.0011,-0.0012,-0.0012,-0.0013,-0.0013,-0.1037,-0.1089,-0.1136,-0.1188,-0.1221,-0.1253,-0.1279,-0.1289,-0.1297,-0.1275,-0.1199,-0.1127,-0.0789,-0.0417,-0.0256,0.0055,0.0068,0.0124,0.017,0.0235,0.0266,0.0003,0.0087,0.0086,0.0086,0.0086,0.0086,0,-0.1091,-0.114,-0.1201,-0.126,-0.1292,-0.1294,-0.1324,-0.1346,-0.1371,-0.1357,-0.1324,-0.1048,-0.0728,-0.0388,0.0083,0.0239,0.0303,0.0303,0.0383,0.039,0.0161,0.0159,0.0246,0.0246,0.0246,0.0246,0.0246,0.0246,-0.1116,-0.1196,-0.1233,-0.1304,-0.133,-0.1372,-0.1387,-0.1429,-0.1431,-0.1396,-0.1293,-0.1211,-0.0704,0.0032,0.041,0.0445,0.0537,0.057,0.0603,0.0414,0.04,0.0386,0.0392,0.0526,0.0527,0.0814,0.0817,0.0819]}],[{"header":{"parameterUnit":"m.s-1","parameterCategory":2,"la1":30.2991,"la2":30.254,"lo1":-89.0895,"lo2":-89.0444,"dy":0.0017,"dx":0.0017,"nx":28,"ny":28,"refTime":"2023-10-29T03:00:00:Z","depth":"2","parameterNumber":2,"parameterNumberName":"U-component_of_CURRENTS"},"data":[0,0,0,0,0,0,0,0,0,0,0,0,0,0,0,0,0,0,0,0,0,0,0,0,0,0,0,0,0,0,0,0,0,0,0,0,0,0,0,0,0,0,0,0,0,0,0,0,0,0,0,0,0,0,0,0,0,0,-0.237,-0.237,0,-0.246,-0.2461,-0.2463,-0.2429,-0.2426,-0.2423,-0.242,-0.2336,-0.2336,-0.2337,0,0,0,0,0,0,0,0,0,0,0,0,0,-0.2315,-0.2316,-0.237,-0.237,-0.2371,-0.2459,-0.2461,-0.2464,-0.2429,-0.2426,-0.2422,-0.2419,-0.2336,-0.2336,-0.2337,0,0,0,0,0,0,0,0,0,0,0,0,0,-0.2373,-0.2316,-0.237,-0.2358,-0.2357,-0.2459,-0.2462,-0.2464,-0.243,-0.2426,-0.2421,-0.2417,-0.2335,-0.2336,-0.2337,-0.2428,0,0,-0.2339,-0.2339,0,0,0,0,0,0,0,0,-0.237,-0.2377,-0.2359,-0.2359,-0.2358,-0.2421,-0.2411,-0.244,-0.2431,-0.2412,-0.242,-0.2415,-0.2345,-0.2345,-0.2387,-0.2424,-0.242,-0.2339,-0.2339,-0.2339,-0.234,0,0,0,0,0,0,0,-0.2366,-0.2373,-0.2415,-0.236,-0.2359,-0.2397,-0.24,-0.2418,-0.2405,-0.2413,-0.2408,-0.2406,-0.2344,-0.2387,-0.2384,-0.2419,-0.2339,-0.2339,-0.234,-0.234,-0.2404,-0.2405,0,0,0,0,0,0,-0.2334,-0.2369,-0.2412,-0.2416,-0.2343,-0.24,-0.2404,-0.2412,-0.2409,-0.2403,-0.2409,-0.2404,-0.2387,-0.2383,-0.238,-0.2372,-0.2339,-0.234,-0.234,-0.2402,-0.2404,-0.2405,0,0,0,0,0,0,-0.2333,-0.2338,-0.2408,-0.2387,-0.2397,-0.2404,-0.2414,-0.2416,-0.2435,-0.2406,-0.2398,-0.2421,-0.2384,-0.2379,-0.2359,-0.2371,-0.234,-0.2341,-0.2401,-0.2403,-0.2405,-0.2427,0,0,0,0,0,0,-0.2332,-0.2338,-0.2346,-0.2385,-0.2396,-0.2423,-0.2418,-0.2421,-0.2436,-0.243,-0.2415,-0.2404,-0.238,-0.2358,-0.236,-0.2371,-0.2341,-0.2399,-0.2402,-0.2404,-0.2425,-0.2429,-0.2434,0,0,0,0,0,-0.233,-0.2355,-0.2347,-0.2351,-0.2404,-0.2422,-0.2432,-0.2429,-0.2441,-0.2437,-0.2428,-0.2403,-0.2374,-0.236,-0.2361,-0.2373,-0.2398,-0.2401,-0.2404,-0.2423,-0.2428,-0.2433,0,0,0,0,0,0,-0.2332,-0.2355,-0.2345,-0.2374,-0.2371,-0.241,-0.2421,-0.2438,-0.2446,-0.2433,-0.2421,-0.241,-0.2404,-0.2394,-0.2379,-0.2401,-0.2384,-0.2387,-0.2398,-0.2403,-0.2408,-0.2428,-0.2342,0,0,0,0,0,-0.2338,-0.2355,-0.2367,-0.2379,-0.2381,-0.2409,-0.2425,-0.2419,-0.2427,-0.2429,-0.2421,-0.2419,-0.2433,-0.2414,-0.2419,-0.2432,-0.2432,-0.2443,-0.2447,-0.2451,-0.247,-0.248,-0.2487,-0.2415,-0.2415,-0.2415,0,0,-0.2333,-0.2351,-0.2356,-0.2379,-0.2388,-0.2408,-0.2409,-0.2415,-0.2438,-0.2418,-0.244,-0.2438,-0.2444,-0.245,-0.2447,-0.2428,-0.2469,-0.2454,-0.2457,-0.2475,-0.2484,-0.2491,-0.2497,-0.2417,-0.2416,-0.2416,0,0,-0.2335,-0.2352,-0.2364,-0.2372,-0.2374,-0.24,-0.2398,-0.2424,-0.2432,-0.2452,-0.2455,-0.2458,-0.2468,-0.2477,-0.2488,-0.253,-0.2503,-0.2523,-0.2547,-0.2556,-0.2562,-0.2567,-0.2562,-0.2566,-0.2511,-0.2511,-0.2511,0,-0.2338,-0.2357,-0.2365,-0.2379,-0.24,-0.2396,-0.242,-0.2442,-0.2455,-0.2477,-0.2439,-0.2506,-0.2493,-0.2544,-0.2545,-0.2541,-0.253,-0.252,-0.2561,-0.2566,-0.2571,-0.2564,-0.2569,-0.2513,-0.2513,-0.2512,-0.2512,0,-0.2338,-0.2363,-0.237,-0.2397,-0.2416,-0.243,-0.2451,-0.2467,-0.2484,-0.2507,-0.2542,-0.2538,-0.257,-0.2571,-0.2567,-0.261,-0.2587,-0.2573,-0.2542,-0.2579,-0.257,-0.2575,-0.2515,-0.2514,-0.2514,-0.2513,0,0,-0.2334,-0.2373,-0.2374,-0.2395,-0.2435,-0.2449,-0.2493,-0.2541,-0.2576,-0.2575,-0.2627,-0.2653,-0.2645,-0.2659,-0.2654,-0.2657,-0.2672,-0.2622,-0.2622,-0.261,-0.2675,-0.2674,-0.2678,-0.2651,-0.2652,-0.2653,-0.2649,0,-0.2339,-0.238,-0.2408,-0.245,-0.2476,-0.251,-0.2553,-0.2587,-0.2615,-0.265,-0.2666,-0.2696,-0.268,-0.2681,-0.269,-0.2682,-0.2687,-0.2674,-0.2649,-0.2649,-0.2638,-0.2686,-0.2378,-0.235,-0.2653,-0.2654,-0.2655,0,-0.2326,-0.2369,-0.2417,-0.2491,-0.2505,-0.2531,-0.261,-0.2645,-0.2698,-0.2713,-0.2748,-0.2753,-0.2781,-0.2745,-0.2758,-0.2742,-0.272,-0.2706,-0.2705,-0.2706,-0.2658,-0.2367,-0.2347,-0.2662,-0.2661,-0.2661,-0.266,0,-0.2305,-0.2375,-0.2425,-0.2446,-0.2523,-0.2555,-0.2596,-0.2656,-0.2691,-0.2746,-0.2762,-0.2802,-0.2801,-0.2798,-0.2774,-0.2757,-0.2772,-0.2742,-0.273,-0.2728,-0.2468,-0.2443,-0.2763,-0.2763,-0.2763,-0.2763,-0.2763,0,-0.2306,-0.2338,-0.2411,-0.2432,-0.2484,-0.2539,-0.2591,-0.2636,-0.2697,-0.2721,-0.2777,-0.2799,-0.281,-0.2818,-0.2794,-0.2781,-0.2788,-0.2758,-0.274,-0.2468,-0.2444,-0.2718,-0.2712,-0.2763,-0.2763,-0.2763,-0.2763,0,-0.2252,-0.2307,-0.2358,-0.2445,-0.2466,-0.2491,-0.2566,-0.2585,-0.2663,-0.2696,-0.2709,-0.2789,-0.2812,-0.2829,-0.2825,-0.28,-0.2791,-0.2784,-0.2468,-0.2417,-0.2732,-0.2728,-0.2773,-0.2773,-0.2773,-0.2773,-0.2773,0,-0.2229,-0.2248,-0.2336,-0.234,-0.2372,-0.242,-0.2432,-0.2537,-0.2558,-0.2677,-0.267,-0.2751,-0.2766,-0.2798,-0.275,-0.2728,-0.2809,-0.2471,-0.2417,-0.2762,-0.2739,-0.2735,-0.2731,-0.2052,-0.2047,-0.2042,-0.2038,0,-0.2169,-0.2193,-0.2223,-0.2242,-0.2257,-0.2293,-0.2327,-0.2352,-0.2456,-0.2501,-0.2556,-0.2597,-0.2647,-0.2506,-0.2526,-0.2478,-0.2456,-0.2383,-0.279,-0.2138,-0.2094,-0.2069,-0.2086,-0.1996,-0.2,-0.2003,-0.2006,-0.2007,-0.2091,-0.2088,-0.2105,-0.2118,-0.2129,-0.2125,-0.2107,-0.2149,-0.2181,-0.2197,-0.2334,-0.2304,-0.2313,-0.2214,-0.2143,-0.2098,-0.2286,-0.2147,-0.2155,-0.217,-0.2127,-0.2091,-0.1982,-0.1986,-0.199,-0.1993,-0.1995,0,-0.1979,-0.1979,-0.197,-0.1967,-0.1912,-0.1981,-0.1991,-0.1939,-0.1909,-0.1954,-0.1965,-0.1795,-0.1707,-0.1771,-0.1612,-0.1634,-0.1559,-0.1587,-0.1425,-0.1467,-0.1504,-0.1423,-0.1093,-0.1091,-0.109,-0.1088,0,0,-0.1905,-0.1856,-0.186,-0.1744,-0.1731,-0.1629,-0.1608,-0.1567,-0.1561,-0.1506,-0.1475,-0.156,-0.1658,-0.1339,-0.1288,-0.1161,-0.1305,-0.1112,-0.1818,-0.1661,-0.1696,-0.1798,-0.1719,0,0,0,0,0]},{"header":{"parameterUnit":"m.s-1","parameterCategory":2,"la1":30.2991,"la2":30.254,"lo1":-89.0895,"lo2":-89.0444,"dy":0.0017,"dx":0.0017,"nx":28,"ny":28,"refTime":"2023-10-29T03:00:00:Z","depth":"2","parameterNumber":3,"parameterNumberName":"V-component_of_CURRENTS"},"data":[0,0,0,0,0,0,0,0,0,0,0,0,0,0,0,0,0,0,0,0,0,0,0,0,0,0,0,0,0,0,0,0,0,0,0,0,0,0,0,0,0,0,0,0,0,0,0,0,0,0,0,0,0,0,0,0,0,0,-0.0409,-0.0409,0,-0.0432,-0.0433,-0.0434,-0.0474,-0.0474,-0.0474,-0.0474,-0.031,-0.0306,-0.0302,0,0,0,0,0,0,0,0,0,0,0,0,0,-0.0477,-0.0476,-0.0409,-0.0409,-0.0408,-0.0432,-0.0433,-0.0434,-0.0474,-0.0474,-0.0474,-0.0474,-0.0312,-0.0307,-0.0301,0,0,0,0,0,0,0,0,0,0,0,0,0,-0.0477,-0.0476,-0.0409,-0.0424,-0.0424,-0.0432,-0.0433,-0.0435,-0.0474,-0.0474,-0.0474,-0.0473,-0.0313,-0.0307,-0.0301,-0.0265,0,0,-0.0281,-0.0279,0,0,0,0,0,0,0,0,-0.0477,-0.0476,-0.0422,-0.0422,-0.0423,-0.0442,-0.0397,-0.0365,-0.0474,-0.0465,-0.0474,-0.0473,-0.033,-0.0323,-0.0344,-0.0258,-0.0251,-0.0281,-0.0277,-0.0274,-0.0272,0,0,0,0,0,0,0,-0.0477,-0.0476,-0.0428,-0.0421,-0.0422,-0.0455,-0.0455,-0.0393,-0.0403,-0.0466,-0.0467,-0.0454,-0.0331,-0.035,-0.034,-0.0248,-0.0281,-0.0275,-0.0271,-0.0269,-0.014,-0.014,0,0,0,0,0,0,-0.0451,-0.0475,-0.0427,-0.0428,-0.044,-0.0453,-0.0453,-0.0444,-0.0407,-0.04,-0.0454,-0.0456,-0.0361,-0.0347,-0.0334,-0.0281,-0.0274,-0.0268,-0.0265,-0.014,-0.014,-0.0141,0,0,0,0,0,0,-0.0453,-0.0447,-0.0426,-0.0445,-0.0443,-0.045,-0.044,-0.0444,-0.0458,-0.0399,-0.039,-0.0462,-0.0361,-0.0342,-0.0278,-0.0274,-0.0265,-0.026,-0.0139,-0.014,-0.014,-0.0179,0,0,0,0,0,0,-0.0455,-0.0447,-0.0448,-0.0442,-0.044,-0.0424,-0.0439,-0.0444,-0.0446,-0.0449,-0.0401,-0.0388,-0.0359,-0.0288,-0.0272,-0.0266,-0.0255,-0.0139,-0.014,-0.014,-0.0177,-0.0181,-0.0184,0,0,0,0,0,-0.0457,-0.0485,-0.0448,-0.0442,-0.0435,-0.0423,-0.0427,-0.0438,-0.0446,-0.0452,-0.0421,-0.0389,-0.0282,-0.0282,-0.0264,-0.0255,-0.0138,-0.0139,-0.014,-0.0176,-0.018,-0.0184,0,0,0,0,0,0,-0.0521,-0.049,-0.045,-0.0464,-0.0425,-0.0426,-0.0448,-0.0434,-0.0424,-0.0427,-0.0377,-0.036,-0.0309,-0.0275,-0.0277,-0.0225,-0.0211,-0.0208,-0.0244,-0.0248,-0.0251,-0.028,-0.0249,0,0,0,0,0,-0.0522,-0.0521,-0.0479,-0.0472,-0.0468,-0.0447,-0.0449,-0.0441,-0.042,-0.042,-0.0377,-0.0339,-0.0301,-0.0268,-0.0229,-0.0181,-0.016,-0.0171,-0.0174,-0.0177,-0.019,-0.0152,-0.0153,-0.0143,-0.0143,-0.0143,0,0,-0.0527,-0.0515,-0.0505,-0.0481,-0.0468,-0.0469,-0.0453,-0.0452,-0.0446,-0.0394,-0.0383,-0.0339,-0.0291,-0.0256,-0.023,-0.0222,-0.017,-0.0178,-0.0181,-0.0193,-0.0153,-0.0154,-0.0154,-0.0144,-0.0144,-0.0144,0,0,-0.0549,-0.0538,-0.0545,-0.0525,-0.0495,-0.0491,-0.0482,-0.0464,-0.046,-0.042,-0.0396,-0.0352,-0.0284,-0.0261,-0.0238,-0.0231,-0.0189,-0.0216,-0.0247,-0.0209,-0.021,-0.021,-0.0187,-0.0184,-0.0216,-0.0216,-0.0216,0,-0.0562,-0.0562,-0.054,-0.0545,-0.0545,-0.0499,-0.051,-0.0496,-0.0449,-0.0436,-0.0418,-0.0344,-0.0295,-0.026,-0.027,-0.0237,-0.0214,-0.0233,-0.0213,-0.0213,-0.0212,-0.0189,-0.0186,-0.0218,-0.0218,-0.0218,-0.0218,0,-0.0579,-0.0582,-0.0596,-0.0582,-0.0578,-0.0584,-0.0549,-0.0534,-0.0515,-0.0483,-0.0435,-0.0376,-0.0335,-0.0312,-0.0287,-0.0261,-0.0246,-0.0222,-0.0203,-0.0216,-0.019,-0.0186,-0.0221,-0.022,-0.022,-0.0219,0,0,-0.0607,-0.0611,-0.0612,-0.0616,-0.0608,-0.0608,-0.0603,-0.0584,-0.0578,-0.0516,-0.0501,-0.0438,-0.0399,-0.0373,-0.0326,-0.0293,-0.0267,-0.0262,-0.0259,-0.0241,-0.0193,-0.0169,-0.0162,-0.0233,-0.0233,-0.0232,-0.0177,0,-0.0628,-0.0666,-0.0658,-0.0678,-0.0703,-0.0674,-0.0675,-0.0641,-0.0606,-0.0572,-0.0503,-0.0464,-0.0423,-0.04,-0.036,-0.0285,-0.0259,-0.0285,-0.0183,-0.0181,-0.0158,-0.0157,-0.0104,-0.0049,-0.0173,-0.0173,-0.0172,0,-0.0651,-0.0682,-0.0727,-0.0745,-0.0753,-0.0756,-0.0762,-0.0742,-0.0681,-0.0651,-0.0594,-0.0532,-0.047,-0.0435,-0.0326,-0.0343,-0.0284,-0.0228,-0.0224,-0.0188,-0.015,-0.0056,-0.0037,-0.0165,-0.0166,-0.0167,-0.0167,0,-0.0705,-0.073,-0.0781,-0.0785,-0.0797,-0.0808,-0.0807,-0.0768,-0.0757,-0.0692,-0.0673,-0.0584,-0.0538,-0.0447,-0.033,-0.0327,-0.0209,-0.0187,-0.0115,-0.0112,-0.0042,-0.0035,-0.0128,-0.0128,-0.0128,-0.0128,-0.0129,0,-0.0759,-0.0789,-0.0807,-0.0834,-0.0882,-0.0857,-0.0882,-0.086,-0.082,-0.0808,-0.0713,-0.0684,-0.0538,-0.0445,-0.0345,-0.0214,-0.0219,-0.0126,-0.0095,-0.0055,-0.0049,-0.0131,-0.0132,-0.0126,-0.0127,-0.0127,-0.0128,0,-0.0811,-0.0823,-0.0877,-0.0904,-0.0913,-0.094,-0.0944,-0.0945,-0.0901,-0.0883,-0.0867,-0.0755,-0.0636,-0.0489,-0.0335,-0.0236,-0.0113,-0.0072,-0.0043,-0.001,-0.0043,-0.0047,0.0011,0.0012,0.0013,0.0014,0.0015,0,-0.0851,-0.0885,-0.0937,-0.0965,-0.0981,-0.101,-0.1027,-0.0998,-0.0991,-0.0928,-0.092,-0.0805,-0.0724,-0.048,-0.0256,-0.0065,-0.0101,0.0061,0.0071,-0.0053,-0.0028,-0.0033,-0.0038,0.0151,0.0153,0.0154,0.0155,0,-0.0924,-0.0937,-0.0981,-0.1041,-0.1073,-0.1104,-0.1117,-0.1129,-0.1085,-0.1063,-0.1013,-0.0944,-0.068,-0.0415,-0.0148,-0.0039,0.004,0.0095,-0.0019,0.0099,0.0082,0.0105,0.0096,0.0169,0.0167,0.0166,0.0166,0.0165,-0.0968,-0.1019,-0.1066,-0.1118,-0.1149,-0.1179,-0.1206,-0.1188,-0.1187,-0.1104,-0.1052,-0.088,-0.0635,-0.0202,-0.0019,0.0173,0.0139,0.0196,0.0191,0.0184,0.0182,0.0168,0.0269,0.0269,0.0268,0.0267,0.0267,0,-0.1005,-0.1071,-0.1131,-0.1189,-0.1206,-0.1221,-0.1249,-0.1221,-0.1204,-0.1092,-0.1,-0.0691,-0.0382,-0.0148,0.0207,0.036,0.0354,0.0349,0.034,0.0327,0.0315,0.0318,0.0442,0.0443,0.0443,0.0444,0,0,-0.1025,-0.1099,-0.1137,-0.1204,-0.1242,-0.1254,-0.1267,-0.122,-0.1126,-0.1003,-0.0843,-0.062,-0.0338,-0.006,0.0149,0.0318,0.0261,0.0315,0.0168,0.0121,0.0107,0.0232,0.0223,0,0,0,0,0]}],[{"header":{"parameterUnit":"m.s-1","parameterCategory":2,"la1":30.2991,"la2":30.254,"lo1":-89.0895,"lo2":-89.0444,"dy":0.0017,"dx":0.0017,"nx":28,"ny":28,"refTime":"2023-10-29T03:00:00:Z","depth":"4","parameterNumber":2,"parameterNumberName":"U-component_of_CURRENTS"},"data":[0,0,0,0,0,0,0,0,0,0,0,0,0,0,0,0,0,0,0,0,0,0,0,0,0,0,0,0,0,0,0,0,0,0,0,0,0,0,0,0,0,0,0,0,0,0,0,0,0,0,0,0,0,0,0,0,0,0,-0.1249,-0.125,0,-0.1216,-0.1215,-0.1213,-0.1176,-0.1176,-0.1177,-0.1177,-0.1288,-0.129,-0.1292,0,0,0,0,0,0,0,0,0,0,0,0,0,-0.118,-0.1181,-0.1249,-0.125,-0.1251,-0.1216,-0.1215,-0.1213,-0.1175,-0.1176,-0.1177,-0.1178,-0.1287,-0.129,-0.1293,0,0,0,0,0,0,0,0,0,0,0,0,0,-0.1173,-0.1181,-0.1249,-0.1237,-0.1237,-0.1217,-0.1215,-0.1213,-0.1175,-0.1176,-0.1177,-0.1178,-0.1286,-0.129,-0.1293,-0.1297,0,0,-0.1304,-0.1306,0,0,0,0,0,0,0,0,-0.1173,-0.1174,-0.1238,-0.1238,-0.1238,-0.1212,-0.1231,-0.1253,-0.1175,-0.1185,-0.1177,-0.1178,-0.1284,-0.1287,-0.1259,-0.1302,-0.1307,-0.1304,-0.1307,-0.1308,-0.1309,0,0,0,0,0,0,0,-0.1174,-0.1175,-0.1223,-0.1239,-0.1239,-0.12,-0.12,-0.1233,-0.1223,-0.1184,-0.1185,-0.1201,-0.1283,-0.1255,-0.1262,-0.1309,-0.1304,-0.1307,-0.131,-0.1311,-0.1452,-0.1454,0,0,0,0,0,0,-0.1208,-0.1176,-0.1224,-0.1223,-0.1221,-0.1202,-0.1201,-0.1209,-0.1219,-0.1224,-0.12,-0.12,-0.1249,-0.1258,-0.1266,-0.1382,-0.1308,-0.1311,-0.1313,-0.1451,-0.1453,-0.1454,0,0,0,0,0,0,-0.1206,-0.1212,-0.1226,-0.1209,-0.121,-0.1205,-0.1212,-0.1208,-0.1204,-0.1232,-0.1237,-0.1206,-0.125,-0.1261,-0.1306,-0.1383,-0.1313,-0.1316,-0.1449,-0.1451,-0.1453,-0.1545,0,0,0,0,0,0,-0.1204,-0.1211,-0.122,-0.1211,-0.1213,-0.1248,-0.1213,-0.1207,-0.1218,-0.1217,-0.1239,-0.1248,-0.1251,-0.13,-0.1309,-0.1386,-0.1319,-0.1447,-0.145,-0.1453,-0.154,-0.155,-0.1559,0,0,0,0,0,-0.1201,-0.1197,-0.122,-0.1226,-0.1227,-0.1251,-0.1246,-0.1236,-0.1218,-0.123,-0.1229,-0.1248,-0.1327,-0.1303,-0.1314,-0.1394,-0.1445,-0.1449,-0.1452,-0.1536,-0.1548,-0.1559,0,0,0,0,0,0,-0.1179,-0.1194,-0.1218,-0.1224,-0.1263,-0.125,-0.1256,-0.1249,-0.1248,-0.1255,-0.1255,-0.1265,-0.1338,-0.1341,-0.1315,-0.144,-0.1396,-0.1402,-0.1456,-0.1468,-0.1477,-0.1457,-0.1322,0,0,0,0,0,-0.1184,-0.1183,-0.1221,-0.1238,-0.126,-0.1264,-0.1269,-0.1277,-0.1282,-0.128,-0.1309,-0.1332,-0.1354,-0.1389,-0.1414,-0.1479,-0.1462,-0.154,-0.1549,-0.1557,-0.1546,-0.1575,-0.1587,-0.1466,-0.1466,-0.1466,0,0,-0.1195,-0.1197,-0.1207,-0.1234,-0.1256,-0.1281,-0.1266,-0.13,-0.1322,-0.13,-0.1348,-0.137,-0.1374,-0.1442,-0.1478,-0.1462,-0.1584,-0.1562,-0.1569,-0.1553,-0.158,-0.1592,-0.1602,-0.1469,-0.1468,-0.1468,0,0,-0.1204,-0.1217,-0.1227,-0.1257,-0.1308,-0.1307,-0.1329,-0.1362,-0.1381,-0.1427,-0.1418,-0.1463,-0.152,-0.1532,-0.1539,-0.1612,-0.1626,-0.166,-0.1708,-0.1738,-0.1748,-0.1756,-0.1753,-0.1761,-0.1675,-0.1675,-0.1675,0,-0.1213,-0.1233,-0.1241,-0.1265,-0.1297,-0.1324,-0.1364,-0.1377,-0.1425,-0.1458,-0.1465,-0.1532,-0.1548,-0.1596,-0.1627,-0.1637,-0.1651,-0.1668,-0.1751,-0.1759,-0.1766,-0.1761,-0.1768,-0.168,-0.1679,-0.1679,-0.1678,0,-0.124,-0.1265,-0.128,-0.1311,-0.1343,-0.1387,-0.1431,-0.1483,-0.1514,-0.1533,-0.1619,-0.163,-0.1666,-0.1704,-0.1686,-0.1768,-0.176,-0.1754,-0.1722,-0.1784,-0.1774,-0.178,-0.1687,-0.1685,-0.1684,-0.1682,0,0,-0.1226,-0.1284,-0.1293,-0.1329,-0.1378,-0.1409,-0.1468,-0.153,-0.1568,-0.1639,-0.1693,-0.1741,-0.1765,-0.177,-0.1789,-0.1825,-0.1889,-0.183,-0.183,-0.1826,-0.1955,-0.1808,-0.1799,-0.1924,-0.1925,-0.1926,-0.1929,0,-0.1253,-0.1301,-0.1323,-0.1388,-0.1425,-0.1479,-0.1522,-0.1584,-0.1635,-0.1698,-0.1738,-0.1787,-0.1785,-0.1825,-0.1861,-0.1878,-0.1909,-0.1887,-0.1894,-0.1893,-0.1755,-0.1802,-0.1931,-0.1933,-0.1934,-0.1935,-0.1935,0,-0.1261,-0.1297,-0.1365,-0.1436,-0.1461,-0.1503,-0.1594,-0.1639,-0.1717,-0.1762,-0.1823,-0.1849,-0.1905,-0.1896,-0.1947,-0.1948,-0.1957,-0.1965,-0.1965,-0.1793,-0.1756,-0.1856,-0.1945,-0.1944,-0.1943,-0.1943,-0.1942,0,-0.1229,-0.1314,-0.1369,-0.1399,-0.1484,-0.1545,-0.1594,-0.1674,-0.1719,-0.1809,-0.1846,-0.191,-0.1941,-0.1978,-0.198,-0.1991,-0.2021,-0.2026,-0.1895,-0.1884,-0.1975,-0.1966,-0.206,-0.206,-0.206,-0.206,-0.206,0,-0.1207,-0.1257,-0.1372,-0.1401,-0.1478,-0.1551,-0.1628,-0.1685,-0.1768,-0.1808,-0.1876,-0.1903,-0.1974,-0.1994,-0.2001,-0.1943,-0.2031,-0.1893,-0.1877,-0.2013,-0.2008,-0.1979,-0.1969,-0.206,-0.206,-0.206,-0.206,0,-0.1146,-0.1219,-0.1291,-0.1417,-0.1456,-0.1519,-0.1631,-0.168,-0.1762,-0.1819,-0.1851,-0.1916,-0.1929,-0.1958,-0.1996,-0.1938,-0.1918,-0.1879,-0.2001,-0.1993,-0.1759,-0.1755,-0.1736,-0.173,-0.1726,-0.1722,-0.1719,0,-0.1107,-0.114,-0.1284,-0.1337,-0.1402,-0.1504,-0.1558,-0.1661,-0.1704,-0.1804,-0.1814,-0.1865,-0.1891,-0.1806,-0.1851,-0.1825,-0.181,-0.1787,-0.179,-0.1741,-0.1728,-0.173,-0.1732,-0.1712,-0.1711,-0.171,-0.1709,0,-0.1039,-0.1107,-0.1168,-0.1278,-0.1362,-0.1436,-0.1529,-0.1545,-0.1653,-0.1741,-0.174,-0.1736,-0.1729,-0.1722,-0.1697,-0.1687,-0.1797,-0.1741,-0.1751,-0.1754,-0.1713,-0.1705,-0.1711,-0.1694,-0.1696,-0.1698,-0.1698,0,-0.0986,-0.1016,-0.1107,-0.1192,-0.1297,-0.1349,-0.1408,-0.1462,-0.1506,-0.1622,-0.1616,-0.1657,-0.1722,-0.1648,-0.1633,-0.1594,-0.1581,-0.1547,-0.1567,-0.1584,-0.1528,-0.1454,-0.1336,0,0,0,0,0,-0.0925,-0.0944,-0.1014,-0.1103,-0.1211,-0.1264,-0.1374,-0.1435,-0.1538,-0.1504,-0.1559,-0.1548,-0.1511,-0.1525,-0.1451,-0.1551,-0.1581,-0.1459,-0.1552,-0.161,-0.1628,-0.1573,0,0,0,0,0,0,-0.089,-0.0941,-0.0968,-0.1013,-0.1058,-0.115,-0.1215,-0.1291,-0.128,-0.1389,-0.1371,-0.1453,-0.1429,-0.1525,-0.1416,-0.142,-0.1449,-0.1489,-0.1485,-0.1601,-0.1616,-0.163,-0.158,0,0,0,0,0]},{"header":{"parameterUnit":"m.s-1","parameterCategory":2,"la1":30.2991,"la2":30.254,"lo1":-89.0895,"lo2":-89.0444,"dy":0.0017,"dx":0.0017,"nx":28,"ny":28,"refTime":"2023-10-29T03:00:00:Z","depth":"4","parameterNumber":3,"parameterNumberName":"V-component_of_CURRENTS"},"data":[0,0,0,0,0,0,0,0,0,0,0,0,0,0,0,0,0,0,0,0,0,0,0,0,0,0,0,0,0,0,0,0,0,0,0,0,0,0,0,0,0,0,0,0,0,0,0,0,0,0,0,0,0,0,0,0,0,0,0.013,0.013,0,0.0225,0.0227,0.0229,0.0323,0.0323,0.0323,0.0323,0.0349,0.0349,0.035,0,0,0,0,0,0,0,0,0,0,0,0,0,0.0138,0.0138,0.013,0.013,0.013,0.0225,0.0227,0.023,0.0322,0.0323,0.0323,0.0323,0.0349,0.0349,0.035,0,0,0,0,0,0,0,0,0,0,0,0,0,0.0184,0.0138,0.013,0.018,0.0184,0.0224,0.0227,0.023,0.0322,0.0323,0.0323,0.0323,0.0348,0.0349,0.035,0.0349,0,0,0.0352,0.0352,0,0,0,0,0,0,0,0,0.0181,0.0185,0.0172,0.0176,0.0181,0.0252,0.0239,0.0262,0.0322,0.0282,0.0323,0.0323,0.0302,0.0307,0.0341,0.035,0.0351,0.0352,0.0353,0.0353,0.0353,0,0,0,0,0,0,0,0.0178,0.0182,0.0179,0.0172,0.0178,0.0234,0.0241,0.0246,0.0297,0.0285,0.029,0.0282,0.0306,0.0341,0.0342,0.0351,0.0352,0.0353,0.0353,0.0354,0.0366,0.0366,0,0,0,0,0,0,0.0137,0.0178,0.0176,0.0181,0.017,0.0232,0.0241,0.0238,0.0298,0.0305,0.0282,0.0286,0.0339,0.0341,0.0343,0.0321,0.0353,0.0354,0.0354,0.0366,0.0366,0.0366,0,0,0,0,0,0,0.0138,0.0137,0.0172,0.0173,0.018,0.023,0.0228,0.024,0.0271,0.0294,0.0302,0.0297,0.0339,0.0342,0.0348,0.0323,0.0354,0.0355,0.0366,0.0366,0.0366,0.0291,0,0,0,0,0,0,0.0138,0.0136,0.0137,0.017,0.0178,0.0181,0.0227,0.0241,0.026,0.0267,0.031,0.0314,0.034,0.0347,0.0349,0.0325,0.0355,0.0367,0.0366,0.0366,0.0294,0.0288,0.0284,0,0,0,0,0,0.0138,0.0146,0.0136,0.0136,0.0171,0.0179,0.019,0.0235,0.026,0.0267,0.0302,0.0312,0.0347,0.0348,0.035,0.0325,0.0367,0.0366,0.0366,0.0296,0.0289,0.0284,0,0,0,0,0,0,0.0153,0.0155,0.0147,0.0154,0.0149,0.019,0.0209,0.0227,0.0267,0.027,0.0309,0.0315,0.0314,0.0333,0.0332,0.0332,0.0359,0.0359,0.0304,0.0298,0.0294,0.0288,0.0356,0,0,0,0,0,0.0146,0.0145,0.0145,0.0138,0.0142,0.0169,0.0183,0.0194,0.0221,0.0242,0.0268,0.0297,0.0317,0.0317,0.0339,0.033,0.0359,0.0318,0.0313,0.0309,0.0308,0.0326,0.0322,0.0365,0.0365,0.0365,0,0,0.0138,0.0141,0.0136,0.0139,0.0151,0.0145,0.0182,0.0183,0.0178,0.0232,0.0249,0.0277,0.0313,0.0315,0.0314,0.0323,0.0316,0.0308,0.0304,0.0306,0.0325,0.032,0.0317,0.0365,0.0365,0.0365,0,0,0.0119,0.0131,0.0122,0.0116,0.0107,0.0126,0.0115,0.0138,0.0157,0.0157,0.0204,0.022,0.0243,0.0271,0.0287,0.0265,0.0293,0.0264,0.0224,0.0241,0.0237,0.0234,0.0276,0.0278,0.0255,0.0255,0.0255,0,0.0111,0.0096,0.0117,0.0102,0.0092,0.0109,0.0087,0.0108,0.0125,0.0132,0.0145,0.0201,0.0225,0.024,0.0238,0.0251,0.0274,0.0239,0.0232,0.023,0.0228,0.0272,0.0275,0.0252,0.0252,0.0252,0.0253,0,0.0082,0.0063,0.0059,0.0044,0.004,0.0022,0.0028,0.0031,0.0047,0.0066,0.008,0.0125,0.0156,0.0164,0.0192,0.0191,0.0217,0.0226,0.0241,0.0219,0.0268,0.0272,0.0246,0.0248,0.0249,0.025,0,0,0.0073,0.0045,0.0038,0.0008,0.0004,-0.0009,-0.0017,-0.0017,-0.002,0.0,0.0006,0.0045,0.0073,0.0094,0.013,0.0144,0.0155,0.017,0.0172,0.0202,0.0206,0.0213,0.0218,0.0153,0.0153,0.0153,0.0249,0,0.0038,-0.0011,-0.0006,-0.0064,-0.0089,-0.008,-0.009,-0.0093,-0.0072,-0.0058,-0.0014,0.0009,0.0045,0.0055,0.0073,0.0139,0.016,0.0129,0.0233,0.0237,0.0236,0.022,0.0153,0.0252,0.0253,0.0254,0.0255,0,0.001,-0.0024,-0.0083,-0.0133,-0.0141,-0.0166,-0.018,-0.0186,-0.0157,-0.0143,-0.0112,-0.0064,-0.0024,0.0003,0.0092,0.0068,0.0128,0.0179,0.0184,0.0217,0.0249,0.028,0.0262,0.0262,0.0261,0.026,0.026,0,-0.0015,-0.0076,-0.0126,-0.0146,-0.0189,-0.0215,-0.0227,-0.0216,-0.022,-0.0189,-0.0183,-0.0123,-0.009,-0.002,0.0094,0.0085,0.02,0.0203,0.0273,0.0276,0.0275,0.0277,0.0259,0.0259,0.0259,0.0258,0.0258,0,-0.0045,-0.0092,-0.0151,-0.0183,-0.0252,-0.0262,-0.0305,-0.0303,-0.0292,-0.0299,-0.0228,-0.0208,-0.0099,-0.0012,0.008,0.0195,0.0192,0.0268,0.0292,0.0244,0.0242,0.0279,0.028,0.0262,0.0261,0.026,0.026,0,-0.007,-0.0102,-0.0176,-0.0243,-0.0268,-0.0319,-0.0366,-0.039,-0.0367,-0.0372,-0.0365,-0.0269,-0.0157,-0.0024,0.0113,0.0179,0.029,0.0335,0.0297,0.0319,0.036,0.0356,0.0407,0.0408,0.0409,0.0409,0.041,0,-0.0074,-0.012,-0.0222,-0.0281,-0.0318,-0.0388,-0.0433,-0.0435,-0.0448,-0.0406,-0.0407,-0.0294,-0.0221,-0.0007,0.0127,0.0313,0.0334,0.0392,0.0349,0.0352,0.0371,0.0366,0.0362,0.0411,0.0411,0.0411,0.0411,0,-0.01,-0.0145,-0.021,-0.033,-0.0405,-0.048,-0.0532,-0.0545,-0.0537,-0.0517,-0.0445,-0.0325,-0.0186,-0.0014,0.0143,0.0271,0.0347,0.0399,0.0398,0.0358,0.0357,0.0374,0.0369,0.0414,0.0413,0.0413,0.0413,0,-0.0111,-0.0171,-0.0265,-0.0374,-0.0476,-0.055,-0.0573,-0.0585,-0.0586,-0.053,-0.0503,-0.0344,-0.0247,-0.0033,0.0109,0.024,0.0258,0.0277,0.0283,0.0282,0.0212,0.019,0.0213,0,0,0,0,0,-0.0118,-0.0191,-0.0299,-0.0422,-0.0529,-0.0575,-0.0632,-0.0637,-0.0622,-0.0585,-0.0544,-0.0413,-0.0193,-0.0078,0.0052,0.0116,0.028,0.027,0.0303,0.0427,0.0424,0.0363,0,0,0,0,0,0,-0.0131,-0.022,-0.0294,-0.0442,-0.0524,-0.0624,-0.0657,-0.065,-0.0614,-0.0579,-0.0452,-0.0391,-0.0162,-0.0265,0.0054,0.0097,0.0131,0.0381,0.0384,0.0429,0.0426,0.0424,0.036,0,0,0,0,0]}]]